User: anonymous   Login
Location: Presov
(49.0000°N, 21.2500°E)
Time: 14:08:48
(UTC+02:00)
Language:

A-11 Canister half - Orbit

View from above orbital plane
View from above orbital plane
View from above satellite
View from above satellite

Ground track
Ground track

The orbit data is extracted from the following two-line orbital elements,

1 00051U 60009C   21107.71431328 -.00000137  00000-0 -49936-3 0  9998
2 00051  47.2106 126.1154 0106875 346.3494  13.4412 12.18274305701183
Epoch (UTC): 17 April 2021 17:08:36
Eccentricity: 0.0106875
inclination: 47.2106°
perigee height: 1515 km
apogee height: 1685 km
right ascension of ascending node: 126.1154°
argument of perigee: 346.3494°
revolutions per day: 12.18274305
mean anomaly at epoch: 13.4412°
orbit number at epoch: 70118

The dashed part of the orbit path shows where the satellite is in the earth's shadow,  

DLR